{"data":{"norad_id":58578,"epoch":"2026-05-25T03:24:59.419296Z","epoch_age_seconds":63476,"freshness":"FRESH","line1":"1 58578U 23196A   26145.14235439  .00010192  00000+0  44377-3 0  9993","line2":"2 58578  42.0087 147.0828 0024418 129.3123 230.9880 15.21979239134732","mean_motion":15.21979239,"eccentricity":0.0024418,"inclination_deg":42.0087,"raan_deg":147.0828,"arg_perigee_deg":129.3123,"mean_anomaly_deg":230.988,"bstar":0.00044377,"rev_number":13473,"period_min":94.613642755478,"perigee_km":483.07647691842,"apogee_km":516.66591775092,"semimajor_km":6878.0081973347,"source":"CELESTRAK","updated_at":"2026-05-25T13:38:00.833587Z"}}